| time (UTC) | temp F | wind direction | speed knots | gust knots | rain 1hr in | rain 24hr in | rain mn in | humidity % | barometer mb |
| 20260507012508 | 76 | 233 | 4.3 | 9.6 | 0.00 | 0.00 | 0.00 | 72 | 1014.2 |
| 20260507012008 | 76 | 252 | 4.3 | 10.4 | 0.00 | 0.00 | 0.00 | 72 | 1014.2 |
| 20260507011527 | 76 | 158 | 5.2 | 12.2 | 0.00 | 0.00 | 0.00 | 73 | 1013.3 |
| 20260507011502 | 76 | 177 | 4.3 | 10.4 | 0.00 | 0.00 | 0.00 | 72 | 1014.1 |
| 20260507011000 | 76 | 230 | 3.5 | 9.6 | 0.00 | 0.00 | 0.00 | 72 | 1014.2 |
| 20260507010449 | 76 | 178 | 3.5 | 7.0 | 0.00 | 0.00 | 0.00 | 72 | 1014.3 |
| 20260507010014 | 76 | 137 | 3.5 | 8.7 | 0.00 | 0.00 | 0.00 | 73 | 1013.5 |
| 20260507005943 | 76 | 170 | 2.6 | 8.7 | 0.00 | 0.00 | 0.00 | 72 | 1014.3 |
| 20260507005431 | 76 | 208 | 3.5 | 8.7 | 0.00 | 0.00 | 0.00 | 72 | 1014.2 |
| 20260507004921 | 76 | 207 | 3.5 | 7.8 | 0.00 | 0.00 | 0.00 | 72 | 1014.2 |
| 20260507004517 | 76 | 168 | 4.3 | 8.7 | 0.00 | 0.00 | 0.00 | 73 | 1013.4 |
| 20260507004414 | 76 | 216 | 3.5 | 7.0 | 0.00 | 0.00 | 0.00 | 72 | 1014.2 |
| 20260507003903 | 76 | 196 | 2.6 | 7.0 | 0.00 | 0.00 | 0.00 | 72 | 1014.1 |
| 20260507003354 | 76 | 208 | 2.6 | 8.7 | 0.00 | 0.00 | 0.00 | 72 | 1014.0 |
| 20260507003018 | 76 | 141 | 1.7 | 9.6 | 0.00 | 0.00 | 0.00 | 72 | 1013.1 |
| 20260507002846 | 77 | 224 | 3.5 | 8.7 | 0.00 | 0.00 | 0.00 | 71 | 1014.0 |
| 20260507002342 | 77 | 212 | 2.6 | 7.0 | 0.00 | 0.00 | 0.00 | 71 | 1014.0 |
| 20260507001846 | 77 | 209 | 3.5 | 7.0 | 0.00 | 0.00 | 0.00 | 71 | 1014.3 |
| 20260507001512 | 77 | 163 | 3.5 | 7.8 | 0.00 | 0.00 | 0.00 | 71 | 1013.4 |
| 20260507001340 | 77 | 212 | 3.5 | 7.0 | 0.00 | 0.00 | 0.00 | 70 | 1014.3 |
| 20260507000840 | 77 | 232 | 3.5 | 8.7 | 0.00 | 0.00 | 0.00 | 70 | 1014.2 |
| 20260507000343 | 77 | 207 | 3.5 | 9.6 | 0.00 | 0.00 | 0.00 | 69 | 1014.2 |
| 20260507000011 | 77 | 177 | 3.5 | 8.7 | 0.00 | 0.00 | 0.00 | 70 | 1013.4 |
| 20260506235838 | 78 | 228 | 3.5 | 9.6 | 0.00 | 0.00 | 0.00 | 69 | 1014.2 |
| 20260506235338 | 78 | 216 | 4.3 | 7.8 | 0.00 | 0.00 | 0.00 | 68 | 1014.1 |
| 20260506234838 | 78 | 235 | 4.3 | 7.8 | 0.00 | 0.00 | 0.00 | 68 | 1014.1 |
| 20260506234512 | 78 | 170 | 6.1 | 9.6 | 0.00 | 0.00 | 0.00 | 69 | 1013.2 |
| 20260506234338 | 78 | 217 | 3.5 | 7.0 | 0.00 | 0.00 | 0.00 | 68 | 1014.1 |
| 20260506233835 | 79 | 191 | 3.5 | 7.0 | 0.00 | 0.00 | 0.00 | 68 | 1014.1 |
| 20260506233339 | 79 | 215 | 3.5 | 7.0 | 0.00 | 0.00 | 0.00 | 67 | 1014.0 |
| 20260506233012 | 79 | 174 | 3.5 | 7.0 | 0.00 | 0.00 | 0.00 | 68 | 1013.2 |
| 20260506232834 | 79 | 231 | 2.6 | 7.0 | 0.00 | 0.00 | 0.00 | 67 | 1014.2 |
| 20260506232333 | 79 | 230 | 2.6 | 7.0 | 0.00 | 0.00 | 0.00 | 67 | 1014.2 |
| 20260506231835 | 80 | 223 | 2.6 | 6.1 | 0.00 | 0.00 | 0.00 | 67 | 1014.1 |
| 20260506231510 | 79 | 187 | 2.6 | 7.0 | 0.00 | 0.00 | 0.00 | 68 | 1013.1 |
| 20260506230821 | 80 | 208 | 3.5 | 7.8 | 0.00 | 0.00 | 0.00 | 67 | 1013.9 |
| 20260506230009 | 79 | 166 | 3.5 | 9.6 | 0.00 | 0.00 | 0.00 | 69 | 1013.0 |
| 20260506225803 | 80 | 222 | 3.5 | 8.7 | 0.00 | 0.00 | 0.00 | 68 | 1013.8 |
| 20260506225255 | 80 | 186 | 3.5 | 9.6 | 0.00 | 0.00 | 0.00 | 69 | 1013.7 |
| 20260506224516 | 80 | 158 | 2.6 | 7.8 | 0.00 | 0.00 | 0.00 | 71 | 1012.9 |
| 20260506224244 | 80 | 202 | 3.5 | 7.8 | 0.00 | 0.00 | 0.00 | 70 | 1013.9 |
| 20260506223743 | 80 | 155 | 3.5 | 7.8 | 0.00 | 0.00 | 0.00 | 69 | 1013.9 |
| 20260506223008 | 80 | 178 | 3.5 | 7.0 | 0.00 | 0.00 | 0.00 | 70 | 1013.1 |
| 20260506222748 | 80 | 200 | 3.5 | 7.0 | 0.00 | 0.00 | 0.00 | 69 | 1014.1 |
| 20260506222244 | 80 | 221 | 3.5 | 10.4 | 0.00 | 0.00 | 0.00 | 69 | 1014.1 |
| 20260506221507 | 80 | 97 | 3.5 | 10.4 | 0.00 | 0.00 | 0.00 | 70 | 1013.3 |
| 20260506221223 | 81 | 198 | 3.5 | 7.8 | 0.00 | 0.00 | 0.00 | 69 | 1014.0 |
| 20260506220714 | 81 | 232 | 3.5 | 7.0 | 0.00 | 0.00 | 0.00 | 69 | 1014.0 |
| 20260506220159 | 81 | 168 | 3.5 | 7.8 | 0.00 | 0.00 | 0.00 | 68 | 1013.9 |
| 20260506220008 | 81 | 174 | 3.5 | 8.7 | 0.00 | 0.00 | 0.00 | 69 | 1013.1 |
| 20260506215653 | 81 | 247 | 4.3 | 9.6 | 0.00 | 0.00 | 0.00 | 68 | 1013.9 |
| 20260506215155 | 81 | 210 | 4.3 | 9.6 | 0.00 | 0.00 | 0.00 | 68 | 1013.8 |
| 20260506214506 | 81 | 159 | 3.5 | 9.6 | 0.00 | 0.00 | 0.00 | 69 | 1013.0 |
| 20260506213633 | 81 | 212 | 3.5 | 9.6 | 0.00 | 0.00 | 0.00 | 67 | 1014.0 |
| 20260506213134 | 81 | 212 | 3.5 | 9.6 | 0.00 | 0.00 | 0.00 | 67 | 1014.0 |
| 20260506213008 | 81 | 157 | 2.6 | 8.7 | 0.00 | 0.00 | 0.00 | 68 | 1013.2 |
| 20260506212636 | 81 | 225 | 4.3 | 9.6 | 0.00 | 0.00 | 0.00 | 67 | 1013.9 |
| 20260506212132 | 82 | 172 | 5.2 | 11.3 | 0.00 | 0.00 | 0.00 | 66 | 1014.0 |
| 20260506211622 | 82 | 210 | 5.2 | 11.3 | 0.00 | 0.00 | 0.00 | 66 | 1014.0 |
| 20260506211506 | 81 | 167 | 5.2 | 12.2 | 0.00 | 0.00 | 0.00 | 67 | 1013.1 |
| 20260506211115 | 82 | 226 | 5.2 | 11.3 | 0.00 | 0.00 | 0.00 | 66 | 1013.9 |
| 20260506210603 | 82 | 195 | 5.2 | 13.0 | 0.00 | 0.00 | 0.00 | 66 | 1014.0 |
| 20260506210105 | 82 | 214 | 6.1 | 13.0 | 0.00 | 0.00 | 0.00 | 64 | 1014.0 |
| 20260506210005 | 82 | 149 | 6.1 | 13.0 | 0.00 | 0.00 | 0.00 | 65 | 1013.1 |
| 20260506205547 | 82 | 210 | 5.2 | 11.3 | 0.00 | 0.00 | 0.00 | 63 | 1013.9 |
| 20260506205043 | 83 | 211 | 4.3 | 10.4 | 0.00 | 0.00 | 0.00 | 63 | 1013.9 |
| 20260506204546 | 83 | 199 | 3.5 | 7.0 | 0.00 | 0.00 | 0.00 | 65 | 1013.9 |
| 20260506204505 | 82 | 137 | 3.5 | 7.0 | 0.00 | 0.00 | 0.00 | 66 | 1013.0 |
| 20260506204040 | 83 | 238 | 3.5 | 8.7 | 0.00 | 0.00 | 0.00 | 64 | 1014.0 |
| 20260506203532 | 83 | 180 | 4.3 | 9.6 | 0.00 | 0.00 | 0.00 | 64 | 1014.1 |
| 20260506203003 | 82 | 148 | 4.3 | 10.4 | 0.00 | 0.00 | 0.00 | 65 | 1013.2 |
| 20260506202008 | 83 | 223 | 5.2 | 12.2 | 0.00 | 0.00 | 0.00 | 63 | 1014.2 |
| 20260506201600 | 83 | 158 | 5.2 | 13.0 | 0.00 | 0.00 | 0.00 | 63 | 1013.3 |
| 20260506201503 | 83 | 232 | 5.2 | 11.3 | 0.00 | 0.00 | 0.00 | 62 | 1014.2 |
| 20260506201001 | 84 | 201 | 5.2 | 11.3 | 0.00 | 0.00 | 0.00 | 62 | 1014.2 |
| 20260506200058 | 83 | 181 | 5.2 | 12.2 | 0.00 | 0.00 | 0.00 | 64 | 1013.5 |
| 20260506195459 | 84 | 190 | 4.3 | 9.6 | 0.00 | 0.00 | 0.00 | 62 | 1014.2 |
| 20260506194959 | 84 | 232 | 4.3 | 9.6 | 0.00 | 0.00 | 0.00 | 63 | 1014.3 |
| 20260506194556 | 84 | 183 | 6.1 | 10.4 | 0.00 | 0.00 | 0.00 | 64 | 1013.5 |
| 20260506193950 | 84 | 212 | 4.3 | 9.6 | 0.00 | 0.00 | 0.00 | 63 | 1014.5 |
| 20260506193054 | 84 | 162 | 5.2 | 12.2 | 0.00 | 0.00 | 0.00 | 63 | 1013.6 |
| 20260506192446 | 85 | 224 | 5.2 | 12.2 | 0.00 | 0.00 | 0.00 | 62 | 1014.5 |
| 20260506191945 | 85 | 173 | 4.3 | 9.6 | 0.00 | 0.00 | 0.00 | 61 | 1014.6 |
| 20260506191554 | 85 | 122 | 4.3 | 12.2 | 0.00 | 0.00 | 0.00 | 62 | 1014.0 |
| 20260506191448 | 85 | 156 | 5.2 | 10.4 | 0.00 | 0.00 | 0.00 | 61 | 1014.8 |
| 20260506190942 | 85 | 212 | 5.2 | 10.4 | 0.00 | 0.00 | 0.00 | 60 | 1014.8 |
| 20260506190442 | 86 | 238 | 5.2 | 8.7 | 0.00 | 0.00 | 0.00 | 59 | 1014.9 |
| 20260506190054 | 85 | 141 | 5.2 | 8.7 | 0.00 | 0.00 | 0.00 | 61 | 1014.1 |
| 20260506185944 | 86 | 214 | 4.3 | 12.2 | 0.00 | 0.00 | 0.00 | 60 | 1015.0 |
| 20260506185439 | 86 | 210 | 4.3 | 12.2 | 0.00 | 0.00 | 0.00 | 60 | 1015.1 |
| 20260506184937 | 86 | 220 | 5.2 | 10.4 | 0.00 | 0.00 | 0.00 | 59 | 1015.0 |
| 20260506184557 | 86 | 139 | 4.3 | 8.7 | 0.00 | 0.00 | 0.00 | 61 | 1014.2 |
| 20260506184436 | 86 | 235 | 5.2 | 10.4 | 0.00 | 0.00 | 0.00 | 60 | 1015.1 |
| 20260506183050 | 86 | 173 | 3.5 | 10.4 | 0.00 | 0.00 | 0.00 | 61 | 1014.4 |
| 20260506182917 | 86 | 180 | 4.3 | 10.4 | 0.00 | 0.00 | 0.00 | 59 | 1015.2 |
| 20260506182403 | 87 | 209 | 5.2 | 10.4 | 0.00 | 0.00 | 0.00 | 58 | 1015.3 |
| 20260506181906 | 87 | 219 | 4.3 | 10.4 | 0.00 | 0.00 | 0.00 | 58 | 1015.3 |
| 20260506181553 | 87 | 162 | 6.1 | 12.2 | 0.00 | 0.00 | 0.00 | 59 | 1014.5 |
| 20260506181357 | 87 | 204 | 3.5 | 9.6 | 0.00 | 0.00 | 0.00 | 58 | 1015.3 |
| 20260506180354 | 88 | 218 | 3.5 | 10.4 | 0.00 | 0.00 | 0.00 | 58 | 1015.6 |
| 20260506180048 | 88 | 133 | 2.6 | 11.3 | 0.00 | 0.00 | 0.00 | 57 | 1014.8 |
| 20260506175342 | 88 | 235 | 2.6 | 9.6 | 0.00 | 0.00 | 0.00 | 54 | 1015.7 |
| 20260506174843 | 87 | 347 | 2.6 | 9.6 | 0.00 | 0.00 | 0.00 | 56 | 1015.8 |
| 20260506174559 | 87 | 163 | 1.7 | 7.8 | 0.00 | 0.00 | 0.00 | 55 | 1015.0 |
| 20260506174336 | 87 | 338 | 1.7 | 4.3 | 0.00 | 0.00 | 0.00 | 52 | 1015.9 |
| 20260506173826 | 88 | 162 | 1.7 | 7.0 | 0.00 | 0.00 | 0.00 | 53 | 1016.0 |
| 20260506173326 | 87 | 168 | 2.6 | 7.0 | 0.00 | 0.00 | 0.00 | 52 | 1016.0 |
| 20260506173053 | 87 | 257 | 2.6 | 9.6 | 0.00 | 0.00 | 0.00 | 54 | 1015.1 |
| 20260506172824 | 88 | 85 | 2.6 | 9.6 | 0.00 | 0.00 | 0.00 | 52 | 1016.0 |
| 20260506172321 | 88 | 355 | 1.7 | 9.6 | 0.00 | 0.00 | 0.00 | 51 | 1016.2 |
| 20260506171822 | 88 | 249 | 1.7 | 4.3 | 0.00 | 0.00 | 0.00 | 54 | 1016.3 |
| 20260506171544 | 88 | 125 | 0.9 | 3.5 | 0.00 | 0.00 | 0.00 | 57 | 1015.5 |
| 20260506171322 | 88 | 200 | 1.7 | 3.5 | 0.00 | 0.00 | 0.00 | 55 | 1016.4 |
| 20260506170822 | 88 | 33 | 1.7 | 5.2 | 0.00 | 0.00 | 0.00 | 54 | 1016.4 |
| 20260506170309 | 88 | 222 | 2.6 | 7.8 | 0.00 | 0.00 | 0.00 | 55 | 1016.3 |
| 20260506170043 | 87 | 176 | 1.7 | 8.7 | 0.00 | 0.00 | 0.00 | 54 | 1015.4 |
| 20260506165759 | 88 | 157 | 2.6 | 7.8 | 0.00 | 0.00 | 0.00 | 54 | 1016.4 |
| 20260506165300 | 88 | 204 | 1.7 | 7.8 | 0.00 | 0.00 | 0.00 | 54 | 1016.4 |
| 20260506164800 | 87 | 197 | 1.7 | 5.2 | 0.00 | 0.00 | 0.00 | 55 | 1016.5 |
| 20260506164546 | 87 | 172 | 1.7 | 6.1 | 0.00 | 0.00 | 0.00 | 57 | 1015.7 |
| 20260506164301 | 87 | 293 | 1.7 | 6.1 | 0.00 | 0.00 | 0.00 | 57 | 1016.7 |
| 20260506163250 | 87 | 236 | 2.6 | 7.8 | 0.00 | 0.00 | 0.00 | 55 | 1016.8 |
| 20260506163054 | 86 | 152 | 1.7 | 7.8 | 0.00 | 0.00 | 0.00 | 55 | 1015.8 |
| 20260506162751 | 87 | 240 | 2.6 | 7.8 | 0.00 | 0.00 | 0.00 | 55 | 1016.8 |
| 20260506162240 | 87 | 196 | 1.7 | 6.1 | 0.00 | 0.00 | 0.00 | 56 | 1016.8 |
| 20260506161740 | 86 | 175 | 1.7 | 5.2 | 0.00 | 0.00 | 0.00 | 57 | 1016.8 |
| 20260506161534 | 86 | 158 | 1.7 | 6.1 | 0.00 | 0.00 | 0.00 | 56 | 1016.0 |
| 20260506161241 | 86 | 276 | 1.7 | 4.3 | 0.00 | 0.00 | 0.00 | 57 | 1016.8 |
| 20260506160737 | 86 | 222 | 2.6 | 6.1 | 0.00 | 0.00 | 0.00 | 58 | 1016.9 |
| 20260506160237 | 85 | 178 | 2.6 | 6.1 | 0.00 | 0.00 | 0.00 | 56 | 1016.9 |
| 20260506160031 | 85 | 139 | 1.7 | 6.1 | 0.00 | 0.00 | 0.00 | 58 | 1016.1 |
| 20260506155235 | 85 | 354 | 1.7 | 7.0 | 0.00 | 0.00 | 0.00 | 58 | 1016.9 |
| 20260506154733 | 84 | 216 | 1.7 | 4.3 | 0.00 | 0.00 | 0.00 | 57 | 1016.8 |
| 20260506154534 | 84 | 107 | 1.7 | 5.2 | 0.00 | 0.00 | 0.00 | 59 | 1016.0 |
| 20260506154237 | 84 | 338 | 1.7 | 7.0 | 0.00 | 0.00 | 0.00 | 59 | 1016.9 |
| 20260506153222 | 84 | 247 | 1.7 | 7.0 | 0.00 | 0.00 | 0.00 | 59 | 1017.0 |
| 20260506153028 | 84 | 268 | 1.7 | 7.8 | 0.00 | 0.00 | 0.00 | 60 | 1016.1 |
| 20260506152718 | 84 | 213 | 2.6 | 7.0 | 0.00 | 0.00 | 0.00 | 59 | 1016.9 |
| 20260506152205 | 83 | 145 | 1.7 | 6.1 | 0.00 | 0.00 | 0.00 | 59 | 1017.1 |
| 20260506151655 | 83 | 52 | 1.7 | 4.3 | 0.00 | 0.00 | 0.00 | 60 | 1017.0 |
| 20260506151521 | 83 | 174 | 0.9 | 4.3 | 0.00 | 0.00 | 0.00 | 61 | 1016.2 |
| 20260506151143 | 83 | 353 | 1.7 | 4.3 | 0.00 | 0.00 | 0.00 | 60 | 1017.0 |
| 20260506150647 | 83 | 216 | 1.7 | 5.2 | 0.00 | 0.00 | 0.00 | 60 | 1016.8 |
| 20260506150138 | 82 | 218 | 1.7 | 5.2 | 0.00 | 0.00 | 0.00 | 61 | 1016.6 |
| 20260506150016 | 81 | 207 | 0.9 | 6.1 | 0.00 | 0.00 | 0.00 | 64 | 1015.7 |
| 20260506145629 | 81 | 226 | 2.6 | 10.4 | 0.00 | 0.00 | 0.00 | 63 | 1016.6 |
| 20260506145122 | 81 | 126 | 3.5 | 10.4 | 0.00 | 0.00 | 0.00 | 61 | 1016.7 |
| 20260506144623 | 80 | 197 | 1.7 | 7.8 | 0.00 | 0.00 | 0.00 | 63 | 1016.7 |
| 20260506144511 | 80 | 138 | 2.6 | 7.8 | 0.00 | 0.00 | 0.00 | 63 | 1015.8 |
| 20260506143052 | 79 | 243 | 2.6 | 7.8 | 0.00 | 0.00 | 0.00 | 65 | 1016.7 |
| 20260506143009 | 79 | 169 | 2.6 | 7.0 | 0.00 | 0.00 | 0.00 | 66 | 1015.9 |
| 20260506142544 | 79 | 231 | 1.7 | 6.1 | 0.00 | 0.00 | 0.00 | 68 | 1016.7 |
| 20260506142043 | 78 | 249 | 2.6 | 5.2 | 0.00 | 0.00 | 0.00 | 66 | 1016.8 |
| 20260506141540 | 78 | 216 | 3.5 | 7.0 | 0.00 | 0.00 | 0.00 | 67 | 1016.7 |
| 20260506141505 | 77 | 158 | 2.6 | 7.8 | 0.00 | 0.00 | 0.00 | 68 | 1015.9 |
| 20260506140534 | 77 | 218 | 2.6 | 7.8 | 0.00 | 0.00 | 0.00 | 67 | 1016.8 |
| 20260506140027 | 77 | 216 | 2.6 | 5.2 | 0.00 | 0.00 | 0.00 | 68 | 1016.7 |
| 20260506140003 | 77 | 154 | 0.9 | 6.1 | 0.00 | 0.00 | 0.00 | 69 | 1015.8 |
| 20260506135516 | 77 | 220 | 1.7 | 7.0 | 0.00 | 0.00 | 0.00 | 68 | 1016.6 |
| 20260506135006 | 77 | 205 | 2.6 | 8.7 | 0.00 | 0.00 | 0.00 | 68 | 1016.5 |
| 20260506134558 | 76 | 129 | 0.9 | 9.6 | 0.00 | 0.00 | 0.00 | 70 | 1015.6 |
| 20260506133438 | 76 | 197 | 2.6 | 7.8 | 0.00 | 0.00 | 0.00 | 69 | 1016.3 |
| 20260506133057 | 75 | 164 | 1.7 | 8.7 | 0.00 | 0.00 | 0.00 | 71 | 1015.4 |
| 20260506132936 | 76 | 198 | 2.6 | 7.8 | 0.00 | 0.00 | 0.00 | 70 | 1016.2 |
| 20260506132438 | 75 | 188 | 3.5 | 7.8 | 0.00 | 0.00 | 0.00 | 70 | 1016.3 |
| 20260506131937 | 75 | 236 | 3.5 | 7.0 | 0.00 | 0.00 | 0.00 | 70 | 1016.3 |
| 20260506131556 | 74 | 197 | 1.7 | 7.8 | 0.00 | 0.00 | 0.00 | 71 | 1015.5 |
| 20260506131435 | 74 | 227 | 2.6 | 7.0 | 0.00 | 0.00 | 0.00 | 70 | 1016.5 |
| 20260506130444 | 73 | 207 | 1.7 | 4.3 | 0.00 | 0.00 | 0.00 | 72 | 1016.5 |
| 20260506130049 | 72 | 127 | 0.9 | 5.2 | 0.00 | 0.00 | 0.00 | 74 | 1015.7 |
| 20260506125924 | 73 | 202 | 1.7 | 6.1 | 0.00 | 0.00 | 0.00 | 74 | 1016.6 |
| 20260506125418 | 72 | 180 | 1.7 | 6.1 | 0.00 | 0.00 | 0.00 | 74 | 1016.5 |
| 20260506124908 | 71 | 189 | 1.7 | 5.2 | 0.00 | 0.00 | 0.00 | 75 | 1016.5 |
| 20260506124546 | 70 | 149 | 1.7 | 4.3 | 0.00 | 0.00 | 0.00 | 77 | 1015.6 |
| 20260506124400 | 70 | 206 | 1.7 | 4.3 | 0.00 | 0.00 | 0.00 | 76 | 1016.4 |
| 20260506123855 | 70 | 171 | 2.6 | 4.3 | 0.00 | 0.00 | 0.00 | 77 | 1016.4 |
| 20260506123357 | 69 | 191 | 1.7 | 5.2 | 0.00 | 0.00 | 0.00 | 78 | 1016.4 |
| 20260506123040 | 68 | 169 | 1.7 | 5.2 | 0.00 | 0.00 | 0.00 | 79 | 1015.6 |
| 20260506122857 | 69 | 187 | 1.7 | 6.1 | 0.00 | 0.00 | 0.00 | 79 | 1016.3 |
| 20260506122350 | 68 | 197 | 1.7 | 6.1 | 0.00 | 0.00 | 0.00 | 79 | 1016.3 |
| 20260506121543 | 67 | 166 | 0.9 | 5.2 | 0.00 | 0.00 | 0.00 | 81 | 1015.4 |
| 20260506121352 | 67 | 224 | 1.7 | 7.0 | 0.00 | 0.00 | 0.00 | 80 | 1016.3 |
| 20260506120034 | 65 | 154 | 2.6 | 5.2 | 0.00 | 0.00 | 0.00 | 82 | 1015.4 |
| 20260506115850 | 65 | 199 | 1.7 | 4.3 | 0.00 | 0.00 | 0.00 | 82 | 1016.2 |
| 20260506115349 | 65 | 204 | 1.7 | 3.5 | 0.00 | 0.00 | 0.00 | 82 | 1016.3 |
| 20260506114836 | 64 | 245 | 0.9 | 3.5 | 0.00 | 0.00 | 0.00 | 82 | 1016.2 |
| 20260506114527 | 64 | 139 | 0.9 | 2.6 | 0.00 | 0.00 | 0.00 | 83 | 1015.3 |
| 20260506114336 | 64 | 196 | 0.9 | 2.6 | 0.00 | 0.00 | 0.00 | 82 | 1016.3 |
| 20260506113837 | 64 | 141 | 0.0 | 2.6 | 0.00 | 0.00 | 0.00 | 82 | 1016.3 |
| 20260506113331 | 63 | 326 | 0.0 | 1.7 | 0.00 | 0.00 | 0.00 | 82 | 1016.2 |
| 20260506113025 | 63 | 268 | 0.0 | 1.7 | 0.00 | 0.00 | 0.00 | 83 | 1015.2 |
| 20260506112826 | 63 | 326 | 0.0 | 1.7 | 0.00 | 0.00 | 0.00 | 82 | 1016.1 |
| 20260506112325 | 63 | 327 | 0.0 | 0.9 | 0.00 | 0.00 | 0.00 | 82 | 1016.0 |
| 20260506111826 | 63 | 329 | 0.0 | 0.9 | 0.00 | 0.00 | 0.00 | 82 | 1015.8 |
| 20260506111529 | 62 | 271 | 0.0 | 0.9 | 0.00 | 0.00 | 0.00 | 83 | 1014.9 |
| 20260506111329 | 63 | 329 | 0.0 | 0.9 | 0.00 | 0.00 | 0.00 | 82 | 1015.6 |
| 20260506110307 | 62 | 161 | 0.0 | 0.9 | 0.00 | 0.00 | 0.00 | 82 | 1015.5 |
| 20260506110023 | 62 | 151 | 0.0 | 0.9 | 0.00 | 0.00 | 0.00 | 83 | 1014.6 |
| 20260506105755 | 62 | 209 | 0.0 | 0.9 | 0.00 | 0.00 | 0.00 | 82 | 1015.5 |
| 20260506105247 | 62 | 209 | 0.0 | 0.9 | 0.00 | 0.00 | 0.00 | 82 | 1015.4 |
| 20260506104732 | 62 | 209 | 0.0 | 0.9 | 0.00 | 0.00 | 0.00 | 82 | 1015.3 |
| 20260506104519 | 62 | 151 | 0.0 | 0.9 | 0.00 | 0.00 | 0.00 | 83 | 1014.5 |
| 20260506104230 | 62 | 209 | 0.0 | 0.9 | 0.00 | 0.00 | 0.00 | 82 | 1015.4 |
| 20260506103731 | 63 | 209 | 0.0 | 0.9 | 0.00 | 0.00 | 0.00 | 82 | 1015.3 |
| 20260506103227 | 62 | 209 | 0.0 | 1.7 | 0.00 | 0.00 | 0.00 | 82 | 1015.4 |
| 20260506103019 | 62 | 151 | 0.0 | 1.7 | 0.00 | 0.00 | 0.00 | 83 | 1014.5 |
| 20260506102723 | 62 | 209 | 0.0 | 1.7 | 0.00 | 0.00 | 0.00 | 82 | 1015.4 |
| 20260506102208 | 63 | 209 | 0.0 | 0.9 | 0.00 | 0.00 | 0.00 | 82 | 1015.5 |
| 20260506101519 | 62 | 151 | 0.0 | 0.9 | 0.00 | 0.00 | 0.00 | 83 | 1014.6 |
| 20260506101209 | 63 | 209 | 0.0 | 0.9 | 0.00 | 0.00 | 0.00 | 82 | 1015.5 |
| 20260506100218 | 63 | 209 | 0.0 | 0.0 | 0.00 | 0.00 | 0.00 | 82 | 1015.6 |
| 20260506100018 | 63 | 151 | 0.0 | 0.0 | 0.00 | 0.00 | 0.00 | 83 | 1014.7 |
| 20260506094703 | 63 | 209 | 0.0 | 0.0 | 0.00 | 0.00 | 0.00 | 82 | 1015.5 |
| 20260506094518 | 63 | 151 | 0.0 | 0.0 | 0.00 | 0.00 | 0.00 | 83 | 1014.7 |
| 20260506094207 | 63 | 209 | 0.0 | 0.0 | 0.00 | 0.00 | 0.00 | 82 | 1015.5 |
| 20260506093701 | 63 | 209 | 0.0 | 0.0 | 0.00 | 0.00 | 0.00 | 82 | 1015.5 |
| 20260506093201 | 63 | 209 | 0.0 | 0.0 | 0.00 | 0.00 | 0.00 | 82 | 1015.4 |
| 20260506093016 | 63 | 151 | 0.0 | 0.0 | 0.00 | 0.00 | 0.00 | 83 | 1014.5 |
| 20260506092703 | 63 | 209 | 0.0 | 0.0 | 0.00 | 0.00 | 0.00 | 82 | 1015.3 |
| 20260506092200 | 63 | 209 | 0.0 | 0.0 | 0.00 | 0.00 | 0.00 | 82 | 1015.3 |
| 20260506091700 | 63 | 209 | 0.0 | 0.0 | 0.00 | 0.00 | 0.00 | 82 | 1015.2 |
| 20260506091516 | 62 | 151 | 0.0 | 0.0 | 0.00 | 0.00 | 0.00 | 82 | 1014.4 |
| 20260506091200 | 63 | 209 | 0.0 | 0.9 | 0.00 | 0.00 | 0.00 | 81 | 1015.1 |
| 20260506090700 | 63 | 209 | 0.0 | 0.9 | 0.00 | 0.00 | 0.00 | 82 | 1015.1 |
| 20260506090202 | 63 | 209 | 0.0 | 0.9 | 0.00 | 0.00 | 0.00 | 82 | 1015.2 |
| 20260506090015 | 62 | 151 | 0.0 | 0.0 | 0.00 | 0.00 | 0.00 | 83 | 1014.3 |
| 20260506084655 | 63 | 209 | 0.0 | 1.7 | 0.00 | 0.00 | 0.00 | 82 | 1015.2 |
| 20260506084517 | 62 | 151 | 0.0 | 1.7 | 0.00 | 0.00 | 0.00 | 83 | 1014.3 |
| 20260506083652 | 62 | 209 | 0.0 | 0.9 | 0.00 | 0.00 | 0.00 | 82 | 1015.2 |
| 20260506083147 | 62 | 209 | 0.0 | 0.9 | 0.00 | 0.00 | 0.00 | 81 | 1015.2 |
| 20260506083017 | 62 | 151 | 0.0 | 0.9 | 0.00 | 0.00 | 0.00 | 83 | 1014.4 |
| 20260506082137 | 62 | 209 | 0.0 | 0.0 | 0.00 | 0.00 | 0.00 | 81 | 1015.4 |
| 20260506081638 | 63 | 209 | 0.0 | 0.0 | 0.00 | 0.00 | 0.00 | 81 | 1015.2 |
| 20260506081512 | 62 | 151 | 0.0 | 0.0 | 0.00 | 0.00 | 0.00 | 82 | 1014.3 |
| 20260506081132 | 63 | 209 | 0.0 | 0.9 | 0.00 | 0.00 | 0.00 | 81 | 1015.2 |
| 20260506080144 | 63 | 209 | 0.0 | 0.9 | 0.00 | 0.00 | 0.00 | 81 | 1015.2 |
| 20260506073100 | 62 | 209 | 0.0 | 0.9 | 0.00 | 0.00 | 0.00 | 81 | 1015.3 |
| 20260506073010 | 62 | 151 | 0.0 | 0.9 | 0.00 | 0.00 | 0.00 | 82 | 1014.4 |
| 20260506072600 | 62 | 209 | 0.0 | 0.9 | 0.00 | 0.00 | 0.00 | 80 | 1015.0 |
| 20260506072055 | 62 | 209 | 0.0 | 0.9 | 0.00 | 0.00 | 0.00 | 80 | 1014.9 |
| 20260506071543 | 62 | 209 | 0.0 | 0.9 | 0.00 | 0.00 | 0.00 | 80 | 1014.9 |
| 20260506071508 | 62 | 151 | 0.0 | 0.9 | 0.00 | 0.00 | 0.00 | 81 | 1014.1 |
| 20260506071039 | 62 | 209 | 0.0 | 0.0 | 0.00 | 0.00 | 0.00 | 80 | 1015.1 |
| 20260506070536 | 62 | 209 | 0.0 | 0.0 | 0.00 | 0.00 | 0.00 | 80 | 1015.1 |
| 20260506062019 | 62 | 209 | 0.0 | 0.0 | 0.00 | 0.00 | 0.00 | 79 | 1015.7 |
| 20260506061519 | 62 | 209 | 0.0 | 0.0 | 0.00 | 0.00 | 0.00 | 79 | 1015.8 |
| 20260506061504 | 62 | 151 | 0.0 | 0.0 | 0.00 | 0.00 | 0.00 | 80 | 1015.0 |
| 20260506051015 | 62 | 209 | 0.0 | 0.0 | 0.00 | 0.00 | 0.00 | 77 | 1016.1 |
| 20260506050508 | 62 | 209 | 0.0 | 0.0 | 0.00 | 0.00 | 0.00 | 77 | 1016.0 |
| 20260506044522 | 62 | 151 | 0.0 | 0.0 | 0.00 | 0.00 | 0.00 | 78 | 1015.3 |
| 20260506044507 | 62 | 209 | 0.0 | 0.0 | 0.00 | 0.00 | 0.00 | 77 | 1016.1 |
| 20260506044008 | 62 | 209 | 0.0 | 0.0 | 0.00 | 0.00 | 0.00 | 76 | 1016.2 |
| 20260506043507 | 62 | 209 | 0.0 | 0.0 | 0.00 | 0.00 | 0.00 | 76 | 1016.2 |
| 20260506043020 | 62 | 151 | 0.0 | 0.0 | 0.00 | 0.00 | 0.00 | 77 | 1015.3 |
| 20260506042504 | 62 | 209 | 0.0 | 0.0 | 0.00 | 0.00 | 0.00 | 76 | 1016.1 |
| 20260506042007 | 62 | 209 | 0.0 | 0.0 | 0.00 | 0.00 | 0.00 | 76 | 1016.1 |
| 20260506041532 | 62 | 151 | 0.0 | 0.0 | 0.00 | 0.00 | 0.00 | 77 | 1015.3 |
| 20260506041454 | 63 | 209 | 0.0 | 0.0 | 0.00 | 0.00 | 0.00 | 76 | 1016.1 |
| 20260506040947 | 63 | 209 | 0.0 | 0.0 | 0.00 | 0.00 | 0.00 | 76 | 1016.1 |
| 20260506040447 | 63 | 209 | 0.0 | 0.0 | 0.00 | 0.00 | 0.00 | 76 | 1016.0 |
| 20260506040017 | 63 | 151 | 0.0 | 0.0 | 0.00 | 0.00 | 0.00 | 77 | 1015.3 |
| 20260506035946 | 63 | 209 | 0.0 | 0.0 | 0.00 | 0.00 | 0.00 | 76 | 1016.1 |
| 20260506034924 | 63 | 209 | 0.0 | 0.0 | 0.00 | 0.00 | 0.00 | 76 | 1016.2 |
| 20260506034523 | 63 | 151 | 0.0 | 0.0 | 0.00 | 0.00 | 0.00 | 77 | 1015.4 |
| 20260506034412 | 64 | 209 | 0.0 | 0.0 | 0.00 | 0.00 | 0.00 | 76 | 1016.4 |
| 20260506033905 | 64 | 209 | 0.0 | 0.0 | 0.00 | 0.00 | 0.00 | 76 | 1016.4 |
| 20260506033405 | 64 | 209 | 0.0 | 0.0 | 0.00 | 0.00 | 0.00 | 76 | 1016.5 |
| 20260506033017 | 63 | 151 | 0.0 | 0.0 | 0.00 | 0.00 | 0.00 | 77 | 1015.6 |
| 20260506032904 | 64 | 209 | 0.0 | 0.0 | 0.00 | 0.00 | 0.00 | 76 | 1016.5 |
| 20260506032400 | 64 | 209 | 0.0 | 0.0 | 0.00 | 0.00 | 0.00 | 75 | 1016.5 |
| 20260506031853 | 64 | 209 | 0.0 | 0.0 | 0.00 | 0.00 | 0.00 | 75 | 1016.4 |
| 20260506031516 | 64 | 151 | 0.0 | 0.0 | 0.00 | 0.00 | 0.00 | 76 | 1015.5 |
| 20260506031351 | 64 | 209 | 0.0 | 0.0 | 0.00 | 0.00 | 0.00 | 74 | 1016.3 |
| 20260506030349 | 64 | 209 | 0.0 | 0.0 | 0.00 | 0.00 | 0.00 | 73 | 1016.3 |
| 20260506030017 | 64 | 151 | 0.0 | 0.0 | 0.00 | 0.00 | 0.00 | 74 | 1015.3 |
| 20260506025840 | 64 | 209 | 0.0 | 0.0 | 0.00 | 0.00 | 0.00 | 74 | 1016.2 |
| 20260506025339 | 64 | 209 | 0.0 | 0.0 | 0.00 | 0.00 | 0.00 | 74 | 1016.2 |
| 20260506024841 | 64 | 209 | 0.0 | 0.0 | 0.00 | 0.00 | 0.00 | 74 | 1016.2 |
| 20260506024514 | 64 | 151 | 0.0 | 0.0 | 0.00 | 0.00 | 0.00 | 74 | 1015.3 |
| 20260506024340 | 65 | 209 | 0.0 | 0.0 | 0.00 | 0.00 | 0.00 | 73 | 1016.1 |
| 20260506023829 | 65 | 209 | 0.0 | 0.0 | 0.00 | 0.00 | 0.00 | 73 | 1016.1 |
| 20260506023329 | 65 | 209 | 0.0 | 0.0 | 0.00 | 0.00 | 0.00 | 73 | 1016.0 |
| 20260506023014 | 65 | 151 | 0.0 | 0.0 | 0.00 | 0.00 | 0.00 | 74 | 1015.2 |
| 20260506022830 | 65 | 209 | 0.0 | 0.0 | 0.00 | 0.00 | 0.00 | 73 | 1016.0 |
| 20260506022327 | 65 | 209 | 0.0 | 0.9 | 0.00 | 0.00 | 0.00 | 73 | 1016.0 |
| 20260506021821 | 65 | 209 | 0.0 | 0.9 | 0.00 | 0.00 | 0.00 | 72 | 1016.0 |
| 20260506021514 | 65 | 151 | 0.0 | 0.9 | 0.00 | 0.00 | 0.00 | 73 | 1015.1 |
| 20260506021310 | 66 | 209 | 0.0 | 1.7 | 0.00 | 0.00 | 0.00 | 72 | 1015.9 |
| 20260506020803 | 66 | 209 | 0.0 | 1.7 | 0.00 | 0.00 | 0.00 | 72 | 1015.9 |
| 20260506020258 | 66 | 209 | 0.0 | 1.7 | 0.00 | 0.00 | 0.00 | 71 | 1015.8 |
| 20260506020013 | 66 | 152 | 0.0 | 0.9 | 0.00 | 0.00 | 0.00 | 72 | 1015.0 |
| 20260506015756 | 67 | 210 | 0.0 | 0.0 | 0.00 | 0.00 | 0.00 | 71 | 1015.8 |
| 20260506015258 | 67 | 210 | 0.0 | 0.9 | 0.00 | 0.00 | 0.00 | 70 | 1015.8 |
| 20260506014753 | 67 | 210 | 0.0 | 0.9 | 0.00 | 0.00 | 0.00 | 70 | 1015.7 |
| 20260506014512 | 67 | 152 | 0.0 | 0.9 | 0.00 | 0.00 | 0.00 | 71 | 1014.8 |
| 20260506014245 | 67 | 210 | 0.0 | 0.9 | 0.00 | 0.00 | 0.00 | 70 | 1015.6 |
| 20260506013744 | 67 | 210 | 0.0 | 1.7 | 0.00 | 0.00 | 0.00 | 70 | 1015.6 |
| 20260506013245 | 68 | 209 | 0.9 | 1.7 | 0.00 | 0.00 | 0.00 | 69 | 1015.5 |
| 20260506013030 | 68 | 151 | 0.0 | 1.7 | 0.00 | 0.00 | 0.00 | 70 | 1014.6 |